Weather History for Lexington, KY

Change the Weather History Date:

Sunday, August 24, 2014

  Actual Average Record
Temperature  
Mean Temperature 82 °F 75 °F  
Max Temperature 91 °F 85 °F 99 °F (1936)
Min Temperature 72 °F 64 °F 50 °F (1952)
Degree Days  
Heating Degree Days 0 0  
Month to date heating degree days 0 0  
Since 1 June heating degree days 2 11  
Since 1 July heating degree days 2 0  
Cooling Degree Days 17 10  
Month to date cooling degree days 244 257  
Year to date cooling degree days 980 953  
Since 1 June cooling degree days 819 846  
Growing Degree Days 32 (Base 50)    
Moisture  
Dew Point 70 °F    
Average Humidity 73    
Maximum Humidity 93    
Minimum Humidity 52    
Precipitation  
Precipitation 0.01 in 0.10 in 2.55 in (1926)
Month to date precipitation 9.13 2.60  
Year to date precipitation 39.30 31.02  
Snow  
Snow 0.00 in 0.00 in - ()
Month to date snowfall 0.0 0.0  
Since 1 June snowfall 0.0 0.0  
Since 1 July snowfall 0.0 0.0  
Snow Depth 0.00 in    
Sea Level Pressure  
Sea Level Pressure 29.99 in    
Wind  
Wind Speed 5 mph (NNE)    
Max Wind Speed 12 mph    
Max Gust Speed 16 mph    
Visibility 8 miles    
Events Rain , Thunderstorm    
T = Trace of Precipitation, MM = Missing Value Source: NWS Daily Summary

Daily Weather History Graph

Daily Weather History Graph

Search for Another Location

Airport:

Trip Planner

Search our weather history database for the weather conditions in past years. The results will help you decide how hot, cold, wet, or windy it might be!

Date:

Astronomy

Aug. 24, 2014 Rise Set
Actual Time 7:01 AM EDT 8:19 PM EDT
Civil Twilight 6:33 AM EDT 8:46 PM EDT
Nautical Twilight 6:01 AM EDT 9:19 PM EDT
Astronomical Twilight 5:26 AM EDT 9:53 PM EDT
Moon 6:10 AM EDT (8/24) 7:37 PM EDT (8/24)
Length of Visible Light 14h 13m
Length of Day
13h 18m
Waning Crescent, 1% of the Moon is Illuminated
Aug 24
Waning Crescent
Aug 25
New
Sep 2
First Quarter
Sep 8
Full
Sep 15
Last Quarter

Hourly Weather History & Observations

Time (EDT) Temp. Heat Index Dew Point Humidity Pressure Visibility Wind Dir Wind Speed Gust Speed Precip Events Conditions
12:02 AM 73.0 °F - 69.1 °F 87% 30.02 in 7.0 mi West 5.8 mph - 0.01 in Rain Light Rain
12:14 AM 73.0 °F - 69.1 °F 87% 30.02 in 6.0 mi West 4.6 mph - 0.03 in Rain , Thunderstorm Rain
12:23 AM 72.0 °F - 69.1 °F 91% 30.02 in 6.0 mi West 4.6 mph - 0.04 in Rain , Thunderstorm Thunderstorms and Rain
12:38 AM 73.0 °F - 69.1 °F 87% 30.00 in 7.0 mi SSW 10.4 mph - 0.07 in Rain Rain
12:54 AM 73.0 °F - 70.0 °F 90% 29.96 in 7.0 mi SSW 5.8 mph - 0.11 in Rain Rain
1:54 AM 73.0 °F - 70.0 °F 90% 29.93 in 10.0 mi East 5.8 mph - 0.02 in   Clear
2:54 AM 73.9 °F - 71.1 °F 91% 29.91 in 9.0 mi ENE 6.9 mph - N/A   Clear
3:54 AM 75.0 °F - 71.1 °F 87% 29.93 in 10.0 mi Calm Calm - N/A   Clear
4:54 AM 73.0 °F - 70.0 °F 90% 29.95 in 7.0 mi NW 4.6 mph - N/A   Mostly Cloudy
5:29 AM 73.0 °F - 70.0 °F 90% 29.99 in 10.0 mi NNW 3.5 mph - N/A   Mostly Cloudy
5:37 AM 72.0 °F - 69.1 °F 91% 29.99 in 10.0 mi NW 4.6 mph - N/A   Scattered Clouds
5:54 AM 72.0 °F - 69.1 °F 91% 29.96 in 10.0 mi NW 3.5 mph - N/A   Mostly Cloudy
6:07 AM 72.0 °F - 70.0 °F 93% 30.00 in 10.0 mi NW 5.8 mph - N/A   Mostly Cloudy
6:54 AM 73.0 °F - 70.0 °F 90% 29.98 in 10.0 mi NNE 3.5 mph - N/A   Mostly Cloudy
7:30 AM 73.0 °F - 70.0 °F 90% 30.01 in 6.0 mi NNE 4.6 mph - N/A   Mostly Cloudy
7:42 AM 73.9 °F - 71.1 °F 91% 30.02 in 2.0 mi NNE 3.5 mph - N/A   Overcast
7:54 AM 73.9 °F - 71.1 °F 91% 30.00 in 0.8 mi North 4.6 mph - N/A   Overcast
8:10 AM 73.9 °F - 71.1 °F 91% 30.03 in 2.0 mi North 3.5 mph - N/A   Overcast
8:43 AM 75.0 °F - 72.0 °F 90% 30.03 in 4.0 mi ENE 6.9 mph - N/A   Overcast
8:54 AM 75.9 °F - 72.0 °F 87% 30.00 in 5.0 mi ENE 6.9 mph - N/A   Mostly Cloudy
9:01 AM 77.0 °F - 72.0 °F 84% 30.03 in 5.0 mi ENE 6.9 mph - N/A   Haze
9:54 AM 78.1 °F - 73.0 °F 84% 30.01 in 9.0 mi ENE 4.6 mph - N/A   Overcast
10:54 AM 82.0 °F 87.4 °F 73.0 °F 74% 30.01 in 10.0 mi SSE 5.8 mph - N/A   Mostly Cloudy
11:54 AM 84.9 °F 91.4 °F 73.0 °F 67% 30.02 in 10.0 mi Calm Calm - N/A   Partly Cloudy
12:54 PM 89.1 °F 96.0 °F 72.0 °F 57% 30.01 in 10.0 mi Variable 3.5 mph - N/A   Scattered Clouds
1:54 PM 89.1 °F 96.0 °F 72.0 °F 57% 30.00 in 10.0 mi NE 5.8 mph - N/A   Clear
2:54 PM 89.1 °F 95.0 °F 71.1 °F 55% 29.99 in 10.0 mi East 5.8 mph - N/A   Partly Cloudy
3:54 PM 90.0 °F 96.4 °F 71.1 °F 54% 29.98 in 10.0 mi NE 8.1 mph - N/A   Partly Cloudy
4:54 PM 89.1 °F 94.1 °F 70.0 °F 53% 29.96 in 10.0 mi NNE 6.9 mph - N/A   Partly Cloudy
5:54 PM 90.0 °F 95.4 °F 70.0 °F 52% 29.96 in 10.0 mi NE 8.1 mph - N/A   Clear
6:54 PM 86.0 °F 90.1 °F 69.1 °F 57% 29.96 in 10.0 mi NE 8.1 mph - N/A   Clear
7:54 PM 84.0 °F 87.8 °F 69.1 °F 61% 29.97 in 10.0 mi NE 5.8 mph - N/A   Clear
8:54 PM 82.0 °F 85.5 °F 69.1 °F 65% 29.98 in 10.0 mi NE 4.6 mph - N/A   Clear
9:54 PM 80.1 °F 82.9 °F 69.1 °F 69% 30.00 in 10.0 mi NE 4.6 mph - N/A   Clear
10:54 PM 79.0 °F - 69.1 °F 72% 30.01 in 10.0 mi ENE 5.8 mph - N/A   Clear
11:54 PM 77.0 °F - 69.1 °F 76% 30.02 in 10.0 mi ENE 4.6 mph - N/A   Clear